User: anonymous   Login
Location: Del Oro Observatory
(38.3044°N, 104.8119°W)
Time: 05:30:43
(UTC-06:00)
Language:

Cosmos 1602 Rocket - Orbit

View from above orbital plane
View from above orbital plane
View from above satellite
View from above satellite

Ground track
Ground track

The orbit data is extracted from the following two-line orbital elements,

1 15332U 84105B   16149.57155047  .00000096  00000-0  87318-5 0  9994
2 15332  82.5345 187.5652 0020775 194.4576 278.1719 14.83239395709574
Epoch (UTC): 28 May 2016 13:43:01
Eccentricity: 0.0020775
inclination: 82.5345°
perigee height: 604 km
apogee height: 633 km
right ascension of ascending node: 187.5652°
argument of perigee: 194.4576°
revolutions per day: 14.83239395
mean anomaly at epoch: 278.1719°
orbit number at epoch: 70957

The dashed part of the orbit path shows where the satellite is in the earth's shadow,  

DLR